Regional Weather Roundup
Issued by NWS

Home | Current Version | Previous Version | Text Only | Print | Product List | Glossary On
Versions: 1 2 3 4 5 6 7 8 9 10 11 12 13 14 15 16 17 18 19 20 21 22 23 24 25 26 27 28 29 30 31 32 33 34 35 36 37 38 39 40 41 42 43 44 45 46 47 48 49 50
000
ASUS44 KEWX 270910
RWRTX
SOUTH TEXAS REGIONAL WEATHER ROUNDUP
NATIONAL WEATHER SERVICE AUSTIN/SAN ANTONIO TX
400 AM CDT WED AUG 27 2014

NOTE: "FAIR" INDICATED FEW OR NO CLOUDS BELOW 12,000 FEET WITH NO
SIGNIFICANT WEATHER AND/OR OBSTRUCTIONS TO VISIBILITY.

* - THESE STATIONS ARE NOT NWS OR FAA STATIONS...AND ARE NOT SUBJECT
    TO NWS AND FAA QUALITY CONTROL.

TXZ171-172-183>190-271000-
TEXAS HILL COUNTRY AND EDWARDS PLATEAU

CITY           SKY/WX    TMP DP  RH WIND       PRES   REMARKS
JUNCTION       CLEAR     77  68  73 E3        30.05S
*LLANO         CLEAR     75  70  83 CALM      30.06S
BURNET         CLEAR     77  69  76 S3        30.05F
*HORSESHOE BAY CLEAR     75  70  85 CALM      30.02F
*KERRVILLE     CLEAR     74  70  86 CALM      30.05S
*FREDERICKSBRG CLEAR     75  68  79 CALM      30.05F
*ROCKSPRINGS   CLEAR     75  66  73 SE7       30.08F
*BOERNE STAGE  CLEAR     72  66  83 CALM      30.04S
*CASTROVILLE   CLEAR     78  68  69 E3        30.01S
HONDO          CLEAR     77  70  79 E5        30.02S
*UVALDE        CLEAR     81  70  69 E6        30.00S
DEL RIO        CLEAR     84  67  56 E8        29.97S
LAUGHLIN AFB   CLEAR     81  68  63 E7        29.99S
CARRIZO SPRGS  CLEAR     81  68  65 SE8       29.96S
$$

TXZ173-191>194-202-209-217>225-228-271000-
CENTRAL AND SOUTH CENTRAL TEXAS

CITY           SKY/WX    TMP DP  RH WIND       PRES   REMARKS
GEORGETOWN     CLEAR     77  70  78 CALM      30.02S
AUSTIN/BERGSTM PTCLDY    73  70  90 CALM      29.99F
AUSTIN/MABRY   CLEAR     79  72  79 CALM      30.01S
*AUSTIN/EXEC   CLOUDY    75  72  88 CALM      30.01S
*LAGO VISTA    CLEAR     77  71  81 CALM      30.03F
SAN MARCOS     CLEAR     73  66  78 CALM      30.02S
NEW BRAUNFELS  CLEAR     75  70  84 NE3       29.99S
RANDOLPH AFB   CLEAR     76  70  82 N2        30.00S
PT SAN ANTONIO CLEAR     79  70  74 E1        29.98F
SAN ANTONIO    PTCLDY    79  71  76 SE3       30.00F
STINSON FIELD  CLEAR     79  71  76 E3        29.98S
*PLEASANTON    CLEAR     76  69  79 CALM      29.98S
*LA GRANGE     CLEAR     76  74  92 CALM      29.96S
*GIDDINGS      CLEAR     74  71  88 CALM      30.02F
*GONZALES      CLEAR     76  73  88 CALM      29.97F
$$

TXZ163>164-176>182-195>201-210>213-226-227-235-271000-
SOUTHEAST TEXAS

CITY           SKY/WX    TMP DP  RH WIND       PRES   REMARKS
COLLEGE STN    CLEAR     78  71  79 CALM      29.98F
*BRYAN         CLEAR     73  70  90 NE3       29.98F
*CALDWELL      CLEAR     75  72  88 CALM      30.02S
*CROCKETT      CLEAR     75  73  94 CALM      30.03S
*BRENHAM       CLEAR     76  73  89 CALM      29.98F
HUNTSVILLE     CLEAR     73  70  90 CALM      29.99F
CONROE         CLEAR     71  69  93 CALM      29.98F
HOUSTON BUSH   MOCLDY    77  72  83 N5        29.96F
HOUSTON HOBBY  PTCLDY    79  73  82 N5        29.94F
*HOUSTON SW AP PTCLDY    77  77 100 CALM      29.95F
PEARLAND       PTCLDY    80  74  81 E10       29.95F
HOUSTON HOOKS  PTCLDY    74  70  87 CALM      29.96F
ELLINGTON FLD  MOCLDY    81  75  83 CALM      29.95F
SUGAR LAND     PTCLDY    78  73  84 N5        29.94F
*HOUSTON EXEC  NOT AVBL
*CLEVELAND MUN PTCLDY    73  72  98 CALM      29.98F FOG
*WHARTON       CLEAR     74  73  96 N3        29.95F FOG
$$

TXZ214>216-236>238-271000-
THE UPPER TEXAS COAST

CITY           SKY/WX    TMP DP  RH WIND       PRES   REMARKS
*ORANGE        CLEAR     75  75 100 N3        29.96F FOG
PORT ARTHUR    CLEAR     78  75  90 N7        29.94F
GALVESTON      MOCLDY    84  73  69 NE10      29.93F HX  90
ANGLETON       CLEAR     75  73  93 N6        29.93F
*BAY CITY      CLEAR     77  77 100 N5        29.93F
PALACIOS       CLEAR     76  74  93 N7        29.92F FOG
$$

TXZ229>234-239>247-271000-
TEXAS COASTAL BEND AND RIO GRANDE PLAINS

CITY           SKY/WX    TMP DP  RH WIND       PRES   REMARKS
VICTORIA       CLEAR     76  74  93 N6        29.95F FOG
*BEEVILLE      CLEAR     76  73  87 NE3       29.95F
ROCKPORT       CLEAR     80  76  87 N6        29.92F
*PORT ARANSAS  CLEAR     80  75  84 CALM      29.92S
*PORT LAVACA   CLEAR     74  73  96 NW7       29.93F FOG
*INGLESIDE     CLEAR     79  74  83 N3        29.92S
CORPUS CHRISTI PTCLDY    81  74  79 NE5       29.93F
CORPUS NAS     CLEAR     83  74  74 NE9       29.92F
*ROBSTOWN      CLEAR     79  73  83 N5        29.94S
ALICE          CLEAR     76  70  82 N6        29.94S
KINGSVILLE NAS CLEAR     77  74  90 N5        29.93F
COTULLA        CLEAR     80  69  69 SE5       29.97S
*FAITH RANCH   CLEAR     82  68  61 SE8       29.98S
LAREDO         CLEAR     82  71  69 E7        29.98F
$$

TXZ248>255-271000-
DEEP SOUTH TEXAS

CITY           SKY/WX    TMP DP  RH WIND       PRES   REMARKS
BROWNSVILLE    CLEAR     78  76  93 NW3       29.91F
PORT ISABEL    CLEAR     79  74  84 W3        29.90F
*SOUTH PADRE   CLEAR     82  77  83 CALM      29.90F HX  91
HARLINGEN      CLEAR     76  74  93 NW5       29.91F
*HEBBRONVILLE  PTCLDY    77  73  86 CALM      29.98S
MCALLEN        CLEAR     81  74  79 CALM      29.94S
*WESLACO       CLEAR     77  72  83 CALM      29.92F
FALFURRIAS     CLEAR     73  67  84 CALM      29.93F
EDINBURG       CLEAR     80  72  76 E3        29.93F
*ZAPATA        CLEAR     80  70  71 CALM      29.95S
$$

TXZ213>215-236>238-242>244-246-247-251-254-255-271000-
CMAN STATIONS

STATION/POSITION TIME  TEMP    WIND        PRES    WAVE
                       AIR SEA DIR/SP/G            HT/PER
                 (UTC) (F)     (DEG/KT/KT) (MB)    (FT/S)
SABINE PASS      0900   78 86   30/  7/ 10 1013.7
SEA RIM ST PARK  0900   77      50/  6/  7 1014.1
NORTH JETTY/GLS  0900   83 86   60/ 12/ 15   N/A
EAGLE POINT      0900   83 87   60/ 11/ 14 1013.8
MORGANS POINT    0900   80      30/  5/  7 1013.9
MISSION/ARANSAS  0800   80      20/  5     1015.0
PORT O`CONNOR    0900           40/ 12/ 14   N/A
PORT ARANSAS     0900   82 82  360/  4/  6 1013.7
MALAQUITE BEACH  0900   82 85   20/  9/ 11 1012.5
BAFFIN BAY       0900   82 84   30/  7/  8 1013.0
PORT ISABEL      0900   82 84     CALM     1012.9
$$

GMZ080-GMZ150>470-271000-
OFFSHORE BUOY REPORTS

STATION/POSITION TIME  TEMP    WIND        PRES    WAVE
                       AIR SEA DIR/SP/G            HT/PER
                 (UTC) (F)     (DEG/KT/KT) (MB)    (FT/S)
20 E GALVESTON   0900   84 87  110/ 10/ 12 1012.6    4/ 6
90 E PT ARANSAS  0900   83 86   60/ 17/ 21 1011.8    7/ 8
35 NE PT MANSFLD 0900   83 85   50/ 12/ 14 1011.6    3/ 5
200 E PT ISABEL  0900   84 87  200/ 10/ 12 1010.5    3/ 8
$$


USA.gov is the U.S. government's official web portal to all federal, state and local government web resources and services.